COSMOS 970 DEB, 65001

Orbit data source: Space-Track

COSMOS 970 DEB, 65001 is space debris in LEO originally from a launch on Wed, 21 Dec 1977 UTC launched from the Tyuratam Missile And Space Complex (TTMTR). Debris objects in space refer to the collection of defunct objects orbiting the Earth. Examples of debris include non-operational satellites, rocket bodies, and fragments generated from explosions, collisions, or faulty payload assembly.

Loading next visibility...
Identifier
65001, 1977-121DN
Orbit
LEO
Country
Flag of CISCIS
Related business
Manufacturer
Unknown
Mission
Spacecraft
Bus & Motor
Unknown
Mass
Unknown
Launch date (UTC)
1977-12-21 (48 years ago)
Launch vehicle
Unknown
Launch site
Tyuratam Missile And Space Complex (TTMTR)
Object type
Payload
Rocket body
Debris
Shape & HBR
Unknown shape, 0.1 m
Radar Cross Section
Small (<0.1 m²)

Expand to show TLE details & history
Last TLE update: 11 hours ago

TLE from 11 hours ago
0 COSMOS 970 DEB
1 65001U 77121DN  26171.40618160 -.00000016  00000-0  10564-3 0  9990
2 65001  65.8215  51.4291 0104723 233.2429 301.6011 13.36838977613822
Epoch: 2026-06-20T09:44Z
TLE epoch observation values (Epoch: 2026-06-20T09:44:54.090Z)
Latitude
5.57807°
Longitude
174.08227°
Altitude
1,081.922 km
Speed
7.332 km/s
True Right ascension
15h 15m 42s
True Declination
5° 32' 47"
Sunlit
Object was in full shadow at epoch
Visualization orbit readout
Latitude
Unknown
Longitude
Unknown
Altitude
Unknown
Speed
Unknown
Apparent Right ascension
Unknown
Apparent Declination
Unknown
Sunlit
N/A
Visualization observer readout
Local Sidereal Time
07:16:48
Azimuth
Unknown
Elevation
Unknown
Doppler factor
Unknown
Orbital elements
Apogee altitude
1,198.142 km
Perigee altitude
1,041.105 km
Semi-major axis
7,497.76 km
Eccentricity
0.01047
Inclination
65.8215°
RAAN
51.4291°
Arg. of periapsis
233.2429°
True anomaly
300.57201°
Mean anomaly
301.6011°
Eccentric anomaly
301.08725°
Mean motion
3.34307 °/min
Orbital period
107.69 mins
BSTAR
0.00010564
Loading maneuver chart data...
Computing Atmospheric mass density...
Loading historical data...
Loading historical data...
Loading historical data...
Loading historical data...
Loading historical data...
Loading historical data...
Loading historical data...

Documentation

Showing up to 5 results
|